カタログに戻る

STARLINK-5551

運用中通信SSO
NORAD 56359·PAYLOAD·🇺🇸 United States

打ち上げ Apr 27, 2023 から Vandenberg Space Force Base

Loading…

次のパス (今後24時間)

TLE

最新Source: CelesTrak SupGP

元期: Sep 14, 2026, 21:17 UTC

1 56359C 23058AU  26257.88729167  .00802940  00000+0  45298-1 0  2574
2 56359  97.2857 251.9496 0001699  81.9953 137.9257 15.12842564    17

AllMySatでSTARLINK-5551をリアルタイム追跡

Download on the App Store